This is the latest recevied weather packets stored in our database for station/object IN3XSV-15. If no packets are shown the sender has not sent any weather packets the latest 10 day(s).
| Time | Temp. | Humidity | Pressure | Rain* | Wind** | Luminosity | Snow |
|---|---|---|---|---|---|---|---|
| 1777713305 | 15.56° C | 44% | 864.9 hPa | 0 mm | - | - | - |
| 1777713005 | 15.56° C | 44% | 865 hPa | 0 mm | - | - | - |
| 1777712705 | 15.56° C | 45% | 864.8 hPa | 0 mm | - | - | - |
| 1777712405 | 15.56° C | 45% | 864.9 hPa | 0 mm | - | - | - |
| 1777712105 | 15.56° C | 44% | 864.8 hPa | 0 mm | - | - | - |
| 1777711805 | 15.56° C | 45% | 864.6 hPa | 0 mm | - | - | - |
| 1777711505 | 15.56° C | 45% | 864.7 hPa | 0 mm | - | - | - |
| 1777711205 | 15.56° C | 45% | 864.7 hPa | 0 mm | - | - | - |
| 1777710905 | 15° C | 46% | 864.8 hPa | 0 mm | - | - | - |
| 1777710605 | 14.44° C | 47% | 864.8 hPa | 0 mm | - | - | - |
| 1777710305 | 14.44° C | 46% | 864.8 hPa | 0 mm | - | - | - |
| 1777710005 | 13.89° C | 46% | 864.7 hPa | 0 mm | - | - | - |
| 1777709705 | 14.44° C | 45% | 864.8 hPa | 0 mm | - | - | - |
| 1777709405 | 14.44° C | 45% | 864.7 hPa | 0 mm | - | - | - |
| 1777709105 | 14.44° C | 46% | 864.7 hPa | 0 mm | - | - | - |
| 1777708805 | 14.44° C | 45% | 864.5 hPa | 0 mm | - | - | - |
| 1777708505 | 14.44° C | 45% | 864.6 hPa | 0 mm | - | - | - |
| 1777708205 | 15° C | 45% | 864.6 hPa | 0 mm | - | - | - |
| 1777707905 | 15° C | 45% | 864.6 hPa | 0 mm | - | - | - |
| 1777707605 | 15° C | 44% | 864.6 hPa | 0 mm | - | - | - |
| 1777707305 | 15° C | 44% | 864.6 hPa | 0 mm | - | - | - |
| 1777707005 | 15.56° C | 43% | 864.7 hPa | 0 mm | - | - | - |
| 1777706705 | 16.11° C | 43% | 864.7 hPa | 0 mm | - | - | - |
| 1777706405 | 16.67° C | 43% | 864.6 hPa | 0 mm | - | - | - |
| 1777706105 | 17.22° C | 43% | 864.6 hPa | 0 mm | - | - | - |
* Rain latest hour (hover to see other rain measurements)
** Current wind speed in m/s (hover to see current wind gust speed)